EW5833 Weather Reports


Display with metric or nautical units.
time (UTC)temp
F
wind
direction
speed
MPH
gust
MPH
rain 1hr
in
rain 24hr
in
rain mn
in
humidity
%
barometer
mb
20260902225001 87 0 1.0 8.0 0.00 0.00 0.00 65 1012.6
20260902224730 88 0 1.0 8.0 0.00 0.00 0.00 63 1012.6
20260902224434 88 0 0.0 2.0 0.00 0.00 0.00 64 1012.4
20260902223729 88 0 0.0 2.0 0.00 0.00 0.00 64 1012.3
20260902223001 88 0 0.0 1.0 0.00 0.00 0.00 64 1012.1
20260902222730 88 0 0.0 1.0 0.00 0.00 0.00 64 1011.9
20260902222440 88 0 0.0 3.0 0.00 0.00 0.00 63 1011.9
20260902221729 88 0 0.0 3.0 0.00 0.00 0.00 61 1012.0
20260902221002 88 0 0.0 3.0 0.00 0.00 0.00 62 1012.1
20260902220730 88 0 0.0 2.0 0.00 0.00 0.00 64 1012.0
20260902220216 89 286 1.0 3.0 0.00 0.00 0.00 59 1012.0
20260902220018 88 139 0.0 3.0 0.00 0.00 0.00 62 1012.0
20260902215005 89 217 1.0 4.0 0.00 0.00 0.00 57 1012.0
20260902214729 88 0 1.0 4.0 0.00 0.00 0.00 58 1011.9
20260902214438 89 0 1.0 4.0 0.00 0.00 0.00 60 1011.9
20260902213729 89 150 1.0 7.0 0.00 0.00 0.00 61 1011.9
20260902213004 89 119 1.0 7.0 0.00 0.00 0.00 58 1011.9
20260902212731 89 0 0.0 2.0 0.00 0.00 0.00 60 1011.9
20260902212212 90 0 1.0 3.0 0.00 0.00 0.00 58 1012.1
20260902212017 89 131 0.0 3.0 0.00 0.00 0.00 59 1012.1
20260902211001 90 0 1.0 5.0 0.00 0.00 0.00 57 1012.2
20260902210730 90 217 1.0 8.0 0.00 0.00 0.00 54 1012.1
20260902210003 90 242 2.0 8.0 0.00 0.00 0.00 54 1012.1
20260902205729 91 209 2.0 7.0 0.00 0.00 0.00 58 1012.2
20260902205448 91 0 1.0 4.0 0.00 0.00 0.00 55 1012.2
20260902204728 91 242 1.0 5.0 0.00 0.00 0.00 54 1012.3
20260902204004 91 214 1.0 5.0 0.00 0.00 0.00 53 1012.3
20260902203729 91 146 1.0 5.0 0.00 0.00 0.00 55 1012.3
20260902203215 92 0 1.0 3.0 0.00 0.00 0.00 55 1012.4
20260902203017 92 253 1.0 3.0 0.00 0.00 0.00 55 1012.3
20260902202002 92 131 2.0 7.0 0.00 0.00 0.00 52 1012.4
20260902201729 93 284 2.0 7.0 0.00 0.00 0.00 52 1012.5
20260902201001 93 116 1.0 5.0 0.00 0.00 0.00 51 1012.5
20260902200731 94 0 1.0 5.0 0.00 0.00 0.00 53 1012.6
20260902200002 93 0 1.0 5.0 0.00 0.00 0.00 54 1012.8
20260902195730 93 0 1.0 8.0 0.00 0.00 0.00 50 1012.7
20260902195001 93 244 2.0 8.0 0.00 0.00 0.00 52 1012.7
20260902194728 93 233 2.0 8.0 0.00 0.00 0.00 51 1012.8
20260902194001 93 18 2.0 7.0 0.00 0.00 0.00 50 1012.9
20260902193729 93 250 2.0 7.0 0.00 0.00 0.00 51 1013.0
20260902193000 93 78 2.0 10.0 0.00 0.00 0.00 49 1013.1
20260902192731 93 84 2.0 10.0 0.00 0.00 0.00 50 1013.1
20260902192440 93 0 2.0 7.0 0.00 0.00 0.00 53 1013.3
20260902191730 93 222 2.0 7.0 0.00 0.00 0.00 54 1013.1
20260902191001 93 314 2.0 7.0 0.00 0.00 0.00 52 1013.3
20260902190734 93 325 2.0 7.0 0.00 0.00 0.00 56 1013.3
20260902190001 94 232 1.0 4.0 0.00 0.00 0.00 55 1013.4
20260902185729 93 330 1.0 4.0 0.00 0.00 0.00 55 1013.3
20260902185001 93 59 1.0 5.0 0.00 0.00 0.00 54 1013.4
20260902184729 93 0 1.0 5.0 0.00 0.00 0.00 54 1013.4
20260902184212 93 204 2.0 6.0 0.00 0.00 0.00 54 1013.4
20260902184012 93 0 1.0 4.0 0.00 0.00 0.00 55 1013.4
20260902183506 93 107 1.0 6.0 0.00 0.00 0.00 55 1013.4
20260902183312 93 220 1.0 6.0 0.00 0.00 0.00 53 1013.4
20260902183013 93 178 1.0 6.0 0.00 0.00 0.00 55 1013.4
20260902181728 93 130 1.0 4.0 0.00 0.00 0.00 56 1013.4
20260902181001 94 139 1.0 4.0 0.00 0.00 0.00 54 1013.5
20260902180730 93 0 1.0 5.0 0.00 0.00 0.00 56 1013.4
20260902180006 92 278 1.0 5.0 0.00 0.00 0.00 58 1013.4
20260902175728 92 99 1.0 4.0 0.00 0.00 0.00 59 1013.4
20260902175004 92 198 2.0 4.0 0.00 0.00 0.00 59 1013.5
20260902174730 91 142 2.0 6.0 0.00 0.00 0.00 63 1013.6
20260902174003 92 0 2.0 6.0 0.00 0.00 0.00 60 1013.8
20260902173728 92 117 1.0 5.0 0.00 0.00 0.00 62 1013.9
20260902173446 92 145 1.0 6.0 0.00 0.00 0.00 59 1014.0
20260902172729 92 90 1.0 6.0 0.00 0.00 0.00 62 1014.1
20260902172208 91 258 1.0 4.0 0.00 0.00 0.00 62 1014.2
20260902172014 92 247 1.0 4.0 0.00 0.00 0.00 61 1014.2
20260902171652 90 113 2.0 6.0 0.00 0.00 0.00 63 1014.4
20260902171012 91 0 1.0 5.0 0.00 0.00 0.00 64 1014.4
20260902170656 90 308 2.0 7.0 0.00 0.00 0.00 67 1014.5
20260902170011 90 341 2.0 6.0 0.00 0.00 0.00 64 1014.5
20260902165000 90 241 3.0 8.0 0.00 0.00 0.00 65 1014.7
20260902164729 90 126 3.0 8.0 0.00 0.00 0.00 65 1014.6
20260902164444 90 296 2.0 8.0 0.00 0.00 0.00 64 1014.7
20260902163729 90 72 1.0 8.0 0.00 0.00 0.00 67 1014.7
20260902163210 88 302 2.0 5.0 0.00 0.00 0.00 66 1014.8
20260902163013 89 331 2.0 5.0 0.00 0.00 0.00 64 1014.8
20260902162000 88 287 2.0 7.0 0.00 0.00 0.00 65 1014.8
20260902161729 88 0 2.0 7.0 0.00 0.00 0.00 65 1014.8
20260902161001 88 316 2.0 6.0 0.00 0.00 0.00 65 1014.9
20260902160938 89 347 3.0 9.0 0.00 0.00 0.00 65 1014.8
20260902160732 88 220 2.0 6.0 0.00 0.00 0.00 66 1014.8
20260902155730 89 275 3.0 9.0 0.00 0.00 0.00 64 1014.8
20260902155002 90 300 1.0 5.0 0.00 0.00 0.00 62 1014.5
20260902154730 90 312 1.0 5.0 0.00 0.00 0.00 64 1014.4
20260902154001 89 170 1.0 5.0 0.00 0.00 0.00 63 1014.3
20260902153728 89 0 1.0 4.0 0.00 0.00 0.00 68 1014.3
20260902153000 89 0 1.0 4.0 0.00 0.00 0.00 66 1014.3
20260902152729 89 171 1.0 4.0 0.00 0.00 0.00 66 1014.3
20260902152001 90 246 1.0 4.0 0.00 0.00 0.00 64 1014.4
20260902151927 89 0 1.0 4.0 0.00 0.00 0.00 65 1014.3
20260902151732 89 215 1.0 4.0 0.00 0.00 0.00 65 1014.3
20260902150730 89 0 1.0 6.0 0.00 0.00 0.00 65 1014.3
20260902150204 89 347 1.0 4.0 0.00 0.00 0.00 69 1014.3
20260902150008 89 0 1.0 6.0 0.00 0.00 0.00 67 1014.4
20260902145215 87 0 1.0 4.0 0.00 0.00 0.00 69 1014.4
20260902145009 88 0 1.0 4.0 0.00 0.00 0.00 70 1014.3
20260902144211 87 253 0.0 5.0 0.00 0.00 0.00 72 1014.3
20260902144012 87 176 1.0 4.0 0.00 0.00 0.00 70 1014.3
20260902143007 86 62 1.0 5.0 0.00 0.00 0.00 75 1014.4
20260902142730 86 96 1.0 5.0 0.00 0.00 0.00 74 1014.4
20260902142004 85 0 1.0 4.0 0.00 0.00 0.00 76 1014.4
20260902141730 85 218 1.0 4.0 0.00 0.00 0.00 76 1014.3
20260902141002 85 0 1.0 3.0 0.00 0.00 0.00 75 1014.3
20260902140729 85 142 0.0 3.0 0.00 0.00 0.00 76 1014.3
20260902140004 85 147 1.0 4.0 0.00 0.00 0.00 78 1014.4
20260902135728 84 128 1.0 4.0 0.00 0.00 0.00 77 1014.4
20260902135003 83 0 1.0 3.0 0.00 0.00 0.00 79 1014.5
20260902134729 83 152 1.0 3.0 0.00 0.00 0.00 80 1014.4
20260902134003 83 156 0.0 2.0 0.00 0.00 0.00 80 1014.5
20260902133729 82 0 0.0 2.0 0.00 0.00 0.00 82 1014.6
20260902133001 82 0 1.0 5.0 0.00 0.00 0.00 83 1014.6
20260902132729 82 0 1.0 5.0 0.00 0.00 0.00 82 1014.5
20260902132457 81 229 0.0 3.0 0.00 0.00 0.00 84 1014.5
20260902132307 81 222 0.0 3.0 0.00 0.00 0.00 85 1014.6
20260902131002 80 0 0.0 3.0 0.00 0.00 0.00 85 1014.5
20260902130731 80 118 0.0 3.0 0.00 0.00 0.00 85 1014.5
20260902130000 79 227 1.0 3.0 0.00 0.00 0.00 88 1014.5
20260902125731 78 125 0.0 3.0 0.00 0.00 0.00 89 1014.4
20260902125002 77 0 0.0 2.0 0.00 0.00 0.00 91 1014.4
20260902124731 77 0 0.0 2.0 0.00 0.00 0.00 91 1014.4
20260902124001 77 226 0.0 2.0 0.00 0.00 0.00 92 1014.4
20260902123731 76 0 0.0 1.0 0.00 0.00 0.00 93 1014.4
20260902123005 76 0 0.0 2.0 0.00 0.00 0.00 93 1014.4
20260902122730 76 0 0.0 2.0 0.00 0.00 0.00 93 1014.4
20260902122003 76 0 0.0 3.0 0.00 0.00 0.00 93 1014.4
20260902121730 76 0 0.0 3.0 0.00 0.00 0.00 93 1014.5
20260902121215 76 0 0.0 2.0 0.00 0.00 0.00 93 1014.4
20260902120959 76 0 1.0 2.0 0.00 0.00 0.00 93 1014.4
20260902115947 76 0 0.0 2.0 0.00 0.00 0.00 93 1014.3
20260902115729 76 0 0.0 2.0 0.00 0.00 0.00 92 1014.3
20260902114947 76 279 1.0 2.0 0.00 0.00 0.00 92 1014.4
20260902114731 76 0 0.0 2.0 0.00 0.00 0.00 92 1014.2
20260902114409 76 226 0.0 4.0 0.00 0.00 0.00 92 1014.1
20260902113731 76 0 1.0 4.0 0.00 0.00 0.00 92 1014.1
20260902113203 76 318 1.0 3.0 0.00 0.00 0.00 92 1014.2
20260902112944 76 5 1.0 4.0 0.00 0.00 0.00 92 1014.2
20260902112420 76 276 0.0 2.0 0.00 0.00 0.00 92 1014.0
20260902112216 76 0 0.0 2.0 0.00 0.00 0.00 92 1013.9
20260902110930 76 0 0.0 2.0 0.00 0.00 0.00 92 1014.0
20260902110719 76 0 1.0 3.0 0.00 0.00 0.00 92 1014.0
20260902105931 76 151 1.0 6.0 0.00 0.00 0.00 91 1014.3
20260902105704 76 0 2.0 8.0 0.00 0.00 0.00 91 1014.4
20260902104929 76 328 2.0 8.0 0.00 0.00 0.00 92 1014.8
20260902104704 76 307 2.0 7.0 0.00 0.00 0.00 92 1014.8
20260902104403 76 341 1.0 4.0 0.00 0.00 0.00 93 1015.2
20260902103704 76 0 1.0 3.0 0.00 0.00 0.00 93 1014.9
20260902103408 76 175 0.0 1.0 0.00 0.00 0.00 93 1014.3
20260902102703 76 0 0.0 1.0 0.00 0.00 0.00 93 1014.4
20260902101931 76 0 0.0 0.0 0.00 0.00 0.00 93 1014.3
20260902101702 76 0 0.0 0.0 0.00 0.00 0.00 93 1014.4
20260902100931 76 0 0.0 2.0 0.00 0.00 0.00 93 1014.2
20260902100702 76 0 0.0 2.0 0.00 0.00 0.00 93 1014.1
20260902095929 76 0 0.0 3.0 0.00 0.00 0.00 93 1014.1
20260902095702 76 0 0.0 3.0 0.00 0.00 0.00 93 1014.0
20260902094930 76 0 0.0 2.0 0.00 0.00 0.00 93 1014.0
20260902094702 76 229 0.0 2.0 0.00 0.00 0.00 93 1014.0
20260902093931 76 241 0.0 2.0 0.00 0.00 0.00 94 1014.0
20260902093704 76 0 0.0 2.0 0.00 0.00 0.00 94 1014.1
20260902092921 76 0 0.0 0.0 0.00 0.00 0.00 94 1014.2
20260902092702 76 0 0.0 0.0 0.00 0.00 0.00 94 1014.2
20260902091921 76 0 0.0 1.0 0.00 0.00 0.00 94 1014.3
20260902091702 76 0 0.0 1.0 0.00 0.00 0.00 94 1014.2
20260902091402 76 0 0.0 2.0 0.00 0.00 0.00 93 1014.3
20260902090841 76 0 0.0 2.0 0.00 0.00 0.00 93 1014.1
20260902090702 76 0 0.0 2.0 0.00 0.00 0.00 93 1014.3
20260902085703 76 0 0.0 2.0 0.00 0.00 0.00 93 1014.1
20260902084921 76 0 0.0 2.0 0.00 0.00 0.00 93 1014.0
20260902084702 76 232 0.0 2.0 0.00 0.00 0.00 93 1014.0
20260902083921 76 0 0.0 2.0 0.00 0.00 0.00 93 1014.1
20260902083702 76 0 0.0 2.0 0.00 0.00 0.00 93 1014.0
20260902083141 76 0 0.0 2.0 0.00 0.00 0.00 93 1014.0
20260902082930 76 0 0.0 2.0 0.00 0.00 0.00 94 1014.1
20260902081907 76 0 0.0 1.0 0.00 0.00 0.00 94 1014.1
20260902081703 76 66 0.0 1.0 0.00 0.00 0.00 94 1014.0
20260902081348 76 0 0.0 2.0 0.00 0.00 0.00 94 1014.0
20260902080703 76 0 0.0 2.0 0.00 0.00 0.00 94 1014.0
20260902075907 75 228 1.0 2.0 0.00 0.00 0.00 93 1014.0
20260902075703 75 242 1.0 3.0 0.00 0.00 0.00 93 1014.1
20260902074908 75 0 1.0 3.0 0.00 0.00 0.00 94 1014.1
20260902074702 75 240 1.0 2.0 0.00 0.00 0.00 94 1014.1
20260902074339 74 227 0.0 2.0 0.00 0.00 0.00 94 1014.0
20260902073651 74 0 0.0 1.0 0.00 0.00 0.00 94 1013.9
20260902073127 74 0 0.0 2.0 0.00 0.00 0.00 94 1013.8
20260902072918 74 0 0.0 2.0 0.00 0.00 0.00 94 1013.8
20260902072125 74 0 0.0 1.0 0.00 0.00 0.00 94 1013.9
20260902071919 74 0 0.0 1.0 0.00 0.00 0.00 93 1013.9
20260902070902 74 0 0.0 0.0 0.00 0.00 0.00 93 1013.9
20260902070652 74 0 0.0 0.0 0.00 0.00 0.00 93 1013.9
20260902065901 74 0 0.0 1.0 0.00 0.00 0.00 94 1013.9
20260902065644 74 0 0.0 1.0 0.00 0.00 0.00 94 1013.9
20260902064901 74 0 0.0 0.0 0.00 0.00 0.00 93 1013.9
20260902064631 74 0 0.0 0.0 0.00 0.00 0.00 93 1013.9
20260902064346 74 0 0.0 1.0 0.00 0.00 0.00 93 1014.0
20260902063633 74 0 0.0 1.0 0.00 0.00 0.00 93 1014.1
20260902062901 74 0 0.0 0.0 0.00 0.00 0.00 93 1014.2
20260902062632 74 0 0.0 0.0 0.00 0.00 0.00 93 1014.2
20260902061900 74 0 0.0 0.0 0.00 0.00 0.00 93 1014.3
20260902061631 74 0 0.0 0.0 0.00 0.00 0.00 93 1014.3
20260902060901 74 0 0.0 0.0 0.00 0.00 0.00 93 1014.3
20260902060630 74 0 0.0 1.0 0.00 0.00 0.00 93 1014.4
20260902055906 74 0 0.0 3.0 0.00 0.00 0.00 93 1014.5
20260902055630 74 0 0.0 3.0 0.00 0.00 0.00 93 1014.5
20260902054903 74 0 0.0 2.0 0.00 0.00 0.00 93 1014.5
20260902054629 74 0 0.0 2.0 0.00 0.00 0.00 93 1014.5
20260902053902 74 0 0.0 2.0 0.00 0.00 0.00 93 1014.6
20260902053628 74 0 0.0 2.0 0.00 0.00 0.00 93 1014.6
20260902052903 74 0 0.0 2.0 0.00 0.00 0.00 93 1014.7
20260902052629 74 0 0.0 2.0 0.00 0.00 0.00 93 1014.6
20260902051902 74 0 0.0 2.0 0.00 0.00 0.00 93 1014.7
20260902051629 74 227 0.0 2.0 0.00 0.00 0.00 93 1014.7
20260902050903 74 0 0.0 2.0 0.00 0.00 0.00 93 1014.8
20260902050629 74 0 0.0 2.0 0.00 0.00 0.00 93 1014.8
20260902045901 74 0 0.0 0.0 0.00 0.00 0.00 94 1014.7
20260902045629 74 0 0.0 0.0 0.00 0.00 0.00 94 1014.7
20260902044902 74 0 0.0 0.0 0.00 0.00 0.00 94 1014.7
20260902044629 74 0 0.0 0.0 0.00 0.00 0.00 94 1014.7
20260902043903 74 0 0.0 0.0 0.00 0.00 0.00 93 1014.7
20260902043629 74 0 0.0 0.0 0.00 0.00 0.00 93 1014.7
20260902042853 74 0 0.0 2.0 0.00 0.00 0.00 93 1014.7
20260902042628 74 0 0.0 2.0 0.00 0.00 0.00 93 1014.6
20260902041850 75 0 0.0 2.0 0.00 0.00 0.00 93 1014.6
20260902041630 75 0 0.0 2.0 0.00 0.00 0.00 92 1014.5
20260902040850 75 0 0.0 2.0 0.00 0.00 0.00 91 1014.6
20260902040630 75 0 0.0 2.0 0.00 0.00 0.00 91 1014.6
20260902035849 76 0 0.0 2.0 0.00 0.00 0.00 91 1014.6
20260902035630 76 0 0.0 2.0 0.00 0.00 0.00 91 1014.6
20260902034850 76 0 0.0 2.0 0.00 0.00 0.00 91 1014.6
20260902034628 76 134 0.0 2.0 0.00 0.00 0.00 91 1014.6
20260902033850 76 0 0.0 1.0 0.00 0.00 0.00 90 1014.5
20260902033819 76 0 0.0 2.0 0.00 0.00 0.00 91 1014.5
20260902033629 76 0 0.0 1.0 0.00 0.00 0.00 90 1014.5
20260902032629 76 0 0.0 2.0 0.00 0.00 0.00 91 1014.4
20260902031845 76 0 0.0 2.0 0.00 0.00 0.00 91 1014.4
20260902031629 76 249 0.0 2.0 0.00 0.00 0.00 92 1014.4
20260902030846 76 0 0.0 2.0 0.00 0.00 0.00 92 1014.3
20260902030630 76 0 0.0 2.0 0.00 0.00 0.00 92 1014.3
20260902025843 76 0 0.0 0.0 0.00 0.00 0.00 92 1014.2
20260902025629 76 0 0.0 1.0 0.00 0.00 0.00 92 1014.2
20260902024843 76 0 0.0 2.0 0.00 0.00 0.00 92 1014.2
20260902024629 76 164 0.0 2.0 0.00 0.00 0.00 92 1014.2
20260902023844 76 0 0.0 0.0 0.00 0.00 0.00 92 1014.3
20260902023629 76 0 0.0 0.0 0.00 0.00 0.00 92 1014.3
20260902022840 76 0 0.0 0.0 0.00 0.00 0.00 92 1014.2
20260902022629 77 0 0.0 0.0 0.00 0.00 0.00 92 1014.2
20260902021840 77 0 0.0 1.0 0.00 0.00 0.00 91 1014.2
20260902021629 77 0 0.0 1.0 0.00 0.00 0.00 91 1014.1
20260902020841 77 0 0.0 1.0 0.00 0.00 0.00 90 1014.2
20260902020630 78 0 0.0 1.0 0.00 0.00 0.00 90 1014.2
20260902015841 78 0 0.0 2.0 0.00 0.00 0.00 90 1014.3
20260902015630 78 0 0.0 2.0 0.00 0.00 0.00 90 1014.3
20260902014838 78 220 0.0 3.0 0.00 0.00 0.00 90 1014.4
20260902014630 78 0 0.0 3.0 0.00 0.00 0.00 90 1014.4
20260902013837 78 0 0.0 1.0 0.00 0.00 0.00 91 1014.4
20260902013630 78 0 0.0 1.0 0.00 0.00 0.00 91 1014.4
20260902012835 78 0 0.0 2.0 0.00 0.00 0.00 91 1014.4
20260902012630 78 0 0.0 2.0 0.00 0.00 0.00 91 1014.4
20260902012316 78 0 0.0 2.0 0.00 0.00 0.00 91 1014.4
20260902011631 78 0 0.0 2.0 0.00 0.00 0.00 91 1014.4
20260902010837 77 0 0.0 2.0 0.00 0.00 0.00 92 1014.3
20260902010636 77 0 0.0 2.0 0.00 0.00 0.00 93 1014.3
20260902005834 77 0 0.0 0.0 0.00 0.00 0.00 93 1014.2
20260902005634 77 0 0.0 0.0 0.00 0.00 0.00 93 1014.1
20260902004837 78 0 0.0 0.0 0.00 0.00 0.00 92 1014.0
20260902004630 78 0 0.0 0.0 0.00 0.00 0.00 91 1014.0
20260902004312 78 0 0.0 1.0 0.00 0.00 0.00 90 1013.9
20260902003629 78 0 0.0 1.0 0.00 0.00 0.00 90 1013.9
20260902003111 79 0 0.0 0.0 0.00 0.00 0.00 88 1013.8
20260902002904 79 0 0.0 0.0 0.00 0.00 0.00 89 1013.8
20260902001833 79 0 0.0 0.0 0.00 0.00 0.00 87 1013.8
20260902001630 80 0 0.0 0.0 0.00 0.00 0.00 87 1013.8
20260902000832 80 0 0.0 0.0 0.00 0.00 0.00 86 1013.9
20260902000629 80 0 0.0 0.0 0.00 0.00 0.00 86 1013.9
20260902000323 81 0 0.0 0.0 0.00 0.00 0.00 83 1013.9
20260901235630 82 0 0.0 0.0 0.00 0.00 0.00 83 1013.9
20260901235113 82 0 0.0 0.0 0.00 0.00 0.00 81 1014.0
20260901234905 82 0 0.0 0.0 0.00 0.00 0.00 82 1013.9
20260901233831 83 0 0.0 0.0 0.00 0.00 0.00 80 1014.0
20260901233629 83 0 0.0 0.0 0.00 0.00 0.00 80 1014.0
20260901232831 84 0 0.0 0.0 0.00 0.00 0.00 78 1014.1
20260901232628 84 0 0.0 0.0 0.00 0.00 0.00 78 1014.1
20260901231829 85 0 0.0 0.0 0.00 0.00 0.00 76 1014.1
20260901231629 85 0 0.0 0.0 0.00 0.00 0.00 76 1014.1
20260901231549 86 0 0.0 0.0 0.00 0.00 0.00 75 1014.1
20260901230905 86 0 0.0 0.0 0.00 0.00 0.00 74 1014.1
20260901225830 86 0 0.0 4.0 0.00 0.00 0.00 74 1014.0
20260901225630 86 0 0.0 4.0 0.00 0.00 0.00 73 1014.0